Weather Roundup
Issued by NWS Springfield, MO

Home | Current Version | Previous Version | Text Only | Print | Product List | Glossary On
Versions: 1 2 3 4 5 6 7 8 9 10 11 12 13 14 15 16 17 18 19 20 21 22 23 24 25 26 27 28 29 30 31 32 33 34 35 36 37 38 39 40 41 42 43 44 45 46 47 48 49 50
000
NZUS99 KSGF 230859
HRRSGF

HOURLY WEATHER
NATIONAL WEATHER SERVICE SPRINGFIELD MO
400 AM CDT THU OCT 23 2014

......SGF CWA......

CITY           SKY/WX    TMP DP  RH WIND       PRES   REMARKS
SPRINGFIELD    CLOUDY    53  44  71 S10       30.15F
JOPLIN         CLOUDY    58  51  78 S6        30.14R
WEST PLAINS    CLEAR     38  35  89 CALM      30.20S
ROLLA          CLEAR     44  39  82 SE9       30.17S
OSAGE BEACH    PTCLDY    46  41  81 SE5       30.17S

......SURROUNDING SGF CWA......

CITY           SKY/WX    TMP DP  RH WIND       PRES   REMARKS
CHANUTE        LGT RAIN  61  59  93 CALM      30.09F
PARSONS        CLOUDY    61  58  90 S5        30.12F
COFFEYVILLE    LGT RAIN  61  57  87 S8        30.11S
EMPORIA        LGT RAIN  61  60  97 SE8       30.08F
SILOAM SPRINGS CLOUDY    55  46  71 E5        30.15F
HARRISON AR    MOCLDY    47  47 100 S3        30.17S
NEAR YELLVILLE PTCLDY    43  37  81 CALM      30.19S

......KANSAS AND MISSOURI......

CITY           SKY/WX    TMP DP  RH WIND       PRES   REMARKS
KANSAS CTY INT LGT RAIN  57  56  96 NW5       30.12R
DOWNTOWN KC    CLOUDY    62  52  69 S8        30.11F
COLUMBIA       PTCLDY    45  41  86 SE7       30.16F
SEDALIA        MOCLDY    53  47  79 S9        30.14F
ST JOSEPH      LGT RAIN  58  57  97 S10       30.10F FOG
ST LOUIS       PTCLDY    43  38  82 SE6       30.20F
SPIRIT OF STL  CLEAR     37  36  96 CALM      30.20S
KIRKSVILLE     MOCLDY    49  44  83 S8        30.14F
WICHITA        CLOUDY    62  57  83 S6        30.08F
TOPEKA         HVY RAIN  63  62  97 S3        30.11S FOG
OLATHE         CLOUDY    58  54  86 S6        30.11S

......TENNESSEE......

CITY           SKY/WX    TMP DP  RH WIND       PRES   REMARKS
MEMPHIS        PTCLDY    51  43  74 NE9       30.17S
NASHVILLE      CLEAR     44  41  89 N3        30.22R

......ARKANSAS.......

CITY           SKY/WX    TMP DP  RH WIND       PRES   REMARKS
FAYETTEVILLE   CLOUDY    50  49  96 CALM      30.16F
FT SMITH       CLOUDY    56  50  80 E8        30.15F
LITTLE ROCK    PTCLDY    49  43  80 CALM      30.17F

......OKLAHOMA.......

CITY           SKY/WX    TMP DP  RH WIND       PRES   REMARKS
TULSA          LGT RAIN  63  61  93 S3        30.11S
PONCA CITY     CLOUDY    64  62  93 SE10      30.09S
MCALESTER      CLOUDY    61  54  77 CALM      30.14S
OKLAHOMA CITY  CLOUDY    63  58  83 S8        30.09F

......IOWA............

CITY           SKY/WX    TMP DP  RH WIND       PRES   REMARKS
DES MOINES     CLOUDY    53  49  86 S8        30.07F
QUAD CITIES    PTCLDY    41  35  79 SE3       30.16F

......ILLINOIS........

CITY           SKY/WX    TMP DP  RH WIND       PRES   REMARKS
QUINCY         CLEAR     48  40  73 S12       30.16F
CHICAGO        CLEAR     37  35  92 S6        30.22F WCI  32




USA.gov is the U.S. government's official web portal to all federal, state and local government web resources and services.